Regional Weather Roundup
Issued by NWS

Home | Current Version | Previous Version | Graphics & Text | Print | Product List | Glossary On
Versions: 1 2 3 4 5 6 7 8 9 10 11 12 13 14 15 16 17 18 19 20 21 22 23 24 25 26 27 28 29 30 31 32 33 34 35 36 37 38 39 40 41 42 43 44 45 46 47 48 49 50
000
ASUS43 KFSD 041810
RWRSD

WEATHER ROUNDUP FOR SOUTH DAKOTA
NATIONAL WEATHER SERVICE SIOUX FALLS SD
100 PM CDT TUE AUG 04 2015

NOTE: "FAIR" INDICATES FEW OR NO CLOUDS BELOW 12,000 FEET WITH NO
SIGNIFICANT WEATHER AND/OR OBSTRUCTIONS TO VISIBILITY.


SDZ001>005-009-010-012>017-041900-
NORTHWEST AND NORTH CENTRAL SOUTH DAKOTA

CITY           SKY/WX    TMP DP  RH WIND       PRES   REMARKS
BUFFALO          N/A     83  55  38 SE23G29   29.89F
FAITH            N/A     82  57  42 SE13G21   29.95F
MOBRIDGE       MOSUNNY   81  63  54 SE10      29.94F
$$

SDZ012>016-024>037-041>051-057-063-072>074-041900-
SOUTHWEST AND SOUTH CENTRAL SOUTH DAKOTA

CITY           SKY/WX    TMP DP  RH WIND       PRES   REMARKS
RAPID CTY ARPT PTSUNNY   76  64  66 S13       29.96F
PIERRE         PTSUNNY   80  59  48 SE12      29.94S
CUSTER         CLOUDY    68  57  68 S8        30.08S
ELLSWORTH AFB  CLOUDY    75  63  64 S15       29.95
PHILIP         MOSUNNY   78  64  61 E13       29.94F
PINE RIDGE     PTSUNNY   76  57  51 S21G31    29.94F
WINNER         FAIR      77  65  66 NE8       29.96R
$$

SDZ004>011-016>023-039-040-041900-
NORTHEAST SOUTH DAKOTA

CITY           SKY/WX    TMP DP  RH WIND       PRES   REMARKS
ABERDEEN       MOSUNNY   79  56  45 E7        29.98F
WATERTOWN      SUNNY     79  55  43 MISG      30.00S
BROOKINGS      PTSUNNY   75  59  57 SE9       30.01S
SISSETON         N/A     79  48  33 CALM      29.98F
$$

SDZ017-020-022-023-036>040-048>070-041900-
SOUTHEAST SOUTH DAKOTA

CITY           SKY/WX    TMP DP  RH WIND       PRES   REMARKS
SIOUX FALLS    CLOUDY    75  61  61 E12       29.99R
HURON          PTSUNNY   79  64  60 E10       29.96S
CHAMBERLAIN    PTSUNNY   76  64  65 SE10      29.96F
MITCHELL       PTSUNNY   77  65  66 SE9       29.97S
YANKTON        PTSUNNY   75  63  64 SE12      29.95S
$$

ABBREVIATIONS USED IN REMARKS
   TC - TEMPERATURE IN CELSIUS
  WCI - WIND CHILL INDEX
   HX - HEAT INDEX
  VSB - VISIBILITY




USA.gov is the U.S. government's official web portal to all federal, state and local government web resources and services.